Zurück zum Katalog

CZ-6A DEB

AktivPO
NORAD 60758·DEBRIS·🇨🇳 China

Gestartet Aug 6, 2024 von Taiyuan Satellite Launch Center

Loading…

Nächste Überflüge (nächste 24 Stunden)

TLE

AktuellSource: Space-Track

Epoche: Sep 14, 2026, 06:53 UTC

1 60758U 24140EH  26257.28688513  .00000388  00000-0  87971-4 0  9995
2 60758  89.0051 260.9602 0099587 324.1290  35.3257 14.51094138110839

Verfolge CZ-6A DEB in Echtzeit mit AllMySat

Download on the App Store